Overview Statistics Trail Chart Weather Telemetry Raw packets
 

This is the latest recevied weather packets stored in our database for station/object SV1RVP-13. If no packets are shown the sender has not sent any weather packets the latest 10 day(s).

<< 39 40 41 42 43 44 45 >>
Time Temp. Humidity Pressure Rain* Wind** Luminosity Snow
1788091709 32.78° C 43% 1014.2 hPa 0 mm - - -
1788091122 32.78° C 43% 1014.2 hPa 0 mm - - -
1788090522 32.78° C 43% 1014.3 hPa 0 mm - - -
1788089924 32.78° C 41% 1014.3 hPa 0 mm - - -
1788089311 32.78° C 42% 1014.5 hPa 0 mm - - -
1788088726 32.78° C 42% 1014.6 hPa 0 mm - - -
1788088115 32.78° C 41% 1014.7 hPa 0 mm - - -
1788087510 32.78° C 42% 1014.7 hPa 0 mm - - -
1788086908 32.22° C 43% 1014.7 hPa 0 mm - - -
1788086333 32.22° C 44% 1014.8 hPa 0 mm - - -
1788085709 31.67° C 46% 1014.9 hPa 0 mm - - -
1788085115 32.22° C 45% 1015 hPa 0 mm - - -
1788084530 32.22° C 44% 1015 hPa 0 mm - - -
1788083912 31.67° C 45% 1015.1 hPa 0 mm - - -
1788083312 31.67° C 45% 1015.1 hPa 0 mm - - -
1788082737 31.67° C 45% 1015.3 hPa 0 mm - - -
1788082107 32.22° C 45% 1015.3 hPa 0 mm - - -
1788081522 31.67° C 45% 1015.2 hPa 0 mm - - -
1788080925 31.67° C 46% 1015.2 hPa 0 mm - - -
1788080337 31.11° C 47% 1015.3 hPa 0 mm - - -
1788079704 31.67° C 44% 1015.3 hPa 0 mm - - -
1788079126 31.11° C 41% 1015.3 hPa 0 mm - - -
1788078513 31.11° C 40% 1015.3 hPa 0 mm - - -
1788077911 30.56° C 41% 1015.4 hPa 0 mm - - -
1788077329 30° C 43% 1015.5 hPa 0 mm - - -

* Rain since midnight (hover to see other rain measurements)
** Current wind speed in m/s (hover to see current wind gust speed)